www.pogodaiklimat.ru
Время
(UTC), дата
04 30.05
05 30.05
06 30.05
08 30.05
07 30.05
09 30.05
10 30.05
11 30.05
12 30.05
14 30.05
13 30.05
15 30.05
16 30.05
17 30.05
18 30.05
20 30.05
19 30.05
21 30.05
22 30.05
00 31.05
01 31.05
02 31.05
03 31.05
04 31.05
05 31.05
06 31.05
07 31.05
08 31.05
09 31.05
11 31.05
12 31.05
13 31.05
15 31.05
16 31.05
17 31.05
18 31.05
19 31.05
20 31.05
21 31.05
22 31.05
23 31.05
00 1.06
01 1.06
02 1.06
03 1.06
04 1.06
05 1.06
06 1.06
07 1.06
09 1.06
10 1.06
11 1.06
12 1.06
14 1.06
13 1.06
15 1.06
16 1.06
17 1.06
18 1.06
20 1.06
19 1.06
21 1.06
22 1.06
23 1.06
00 2.06
01 2.06
03 2.06
04 2.06
06 2.06
07 2.06
08 2.06
09 2.06
11 2.06
10 2.06
12 2.06
13 2.06
15 2.06
16 2.06
17 2.06
18 2.06
19 2.06
20 2.06
21 2.06
22 2.06
23 2.06
00 3.06
01 3.06
02 3.06
03 3.06
04 3.06
05 3.06
06 3.06
07 3.06
09 3.06
11 3.06
12 3.06
13 3.06
14 3.06
15 3.06
16 3.06
17 3.06
18 3.06
19 3.06
20 3.06
21 3.06
22 3.06
23 3.06
00 4.06
01 4.06
02 4.06
03 4.06
04 4.06
05 4.06
06 4.06
07 4.06
08 4.06
09 4.06
11 4.06
12 4.06
13 4.06
15 4.06
16 4.06
17 4.06
18 4.06
19 4.06
20 4.06
21 4.06
22 4.06
23 4.06
00 5.06
01 5.06
02 5.06
03 5.06
04 5.06
05 5.06
06 5.06
07 5.06
08 5.06
09 5.06
10 5.06
11 5.06
12 5.06
13 5.06
14 5.06
15 5.06
16 5.06
17 5.06
18 5.06
20 5.06
21 5.06
22 5.06
23 5.06
00 6.06
02 6.06
01 6.06
03 6.06
04 6.06
Ветер
(напр.,м/с)
Видим. Явления Облачность Т
(С)
Тd
(С)
f
(%)
Тe
(С)
Тes
(С)
Комфортность P
(гПа)
Po
(гПа)
Тmin
(С)
Tmax
(С)
R
(мм)
R24
(мм)
S
(см)
Ю 2 н/о н/о +24.0 +17.3 66 +28 +28 душно 1017.5 1013.8
Ю 2 н/о н/о +23.8 +17.3 67 +28 +28 душно 1016.9 1013.2
ЮВ 1 15 км слаб. дождь 10/0
[Ac As]
+23.6 +17.8 70 +28 +33 душно 1016.5 1012.8 0.0
В 1 н/о н/о +21.9 +15.7 68 +26 +26 душно 1016.0 1012.3
Ю 2 н/о н/о +23.2 +17.0 68 +28 +28 душно 1016.6 1012.9
С 3 15 км слаб. дождь 10/1
[Frnb Ac As]
+21.7 +17.3 76 +26 +26 душно 1015.5 1011.8
В 2 н/о н/о +21.3 +15.2 68 +24 +24 комфорт 1015.5 1011.8
С 2 н/о н/о +20.4 +16.0 76 +24 +24 комфорт 1016.1 1012.4
СВ 4 15 км слаб. дождь 10/0
[Ac As]
+20.5 +16.5 78 +24 +24 комфорт 1016.2 1012.5 +24.5 2
В 2 н/о н/о +19.0 +18.0 94 +21 +21 комфорт 1016.8 1013.1
СВ 2 н/о н/о +18.8 +17.5 92 +21 +21 комфорт 1016.8 1013.1
В 3 н/о н/о +19.3 +18.0 92 +22 +22 комфорт 1015.9 1012.2
В 1 н/о н/о +18.8 +18.0 95 +21 +21 комфорт 1015.2 1011.5
СВ 2 н/о н/о +18.6 +18.0 96 +20 +20 по сезону 1014.4 1010.7
СВ 2 8000 м дождь 10/3
[Frnb As op]
+18.5 +17.9 96 +20 +20 по сезону 1014.1 1010.4 8
С 3 н/о н/о +18.7 +17.7 94 +20 +20 по сезону 1012.8 1009.1
СВ 2 н/о н/о +18.4 +17.6 95 +20 +20 по сезону 1013.6 1009.9
СВ 4 10 км слаб. дождь 10/3
[Cu Sc As op]
+19.0 +17.9 93 +21 +21 комфорт 1013.2 1009.5
СВ 3 н/о н/о +19.5 +18.5 94 +22 +22 комфорт 1013.0 1009.3
ЮЗ 1 15 км в посл. час дождь 10/3
[Cu Sc Ac As]
+21.0 +18.4 85 +27 +30 душно 1012.6 1008.9 +18.3 14 16.0
СВ 3 н/о н/о +22.1 +18.1 78 +27 +27 душно 1011.9 1008.2
С 4 н/о н/о +23.2 +19.0 77 +29 +29 душно 1011.7 1008.0
СВ 4 25 км 9/4
[Cu Sc Ac As]
+23.3 +18.8 76 +30 +33 очень
душно
1011.1 1007.5
С 4 н/о н/о +23.7 +19.0 75 +28 +28 душно 1010.8 1007.2
СВ 3 н/о н/о +24.1 +19.0 73 +29 +29 душно 1010.6 1007.0
В 4 20 км 9/8
[Cu Sc Ac As]
+23.7 +19.0 75 +28 +30 душно 1010.7 1007.1
С 3 н/о н/о +23.6 +18.9 75 +28 +28 душно 1010.4 1006.8
С 2 н/о н/о +23.3 +18.6 75 +29 +29 душно 1010.5 1006.9
ЮЗ 2 15 км в посл. час ливневой дождь 10/8
[Cu Sc Ac As]
+22.1 +20.0 88 +28 +28 душно 1010.9 1007.2
С 1 н/о н/о +21.7 +19.3 86 +27 +27 душно 1010.6 1006.9
С 2 20 км слаб. ливневой дождь 10/8
[Cu Sc Ac As]
+21.8 +19.2 85 +27 +27 душно 1011.3 1007.6 +24.2 0.5
С 2 н/о н/о +21.7 +19.5 87 +27 +27 душно 1011.9 1008.2
СВ 2 н/о н/о +21.5 +19.6 89 +27 +27 душно 1011.5 1007.8
С 2 н/о н/о +21.7 +19.5 87 +27 +27 душно 1011.3 1007.6
С 2 н/о н/о +21.7 +19.5 87 +27 +27 душно 1011.0 1007.3
СВ 2 20 км в посл. час ливневой дождь 10/8
[Cu Sc Ac As]
+21.5 +19.4 88 +26 +26 душно 1011.0 1007.3 0.0
СВ 1 н/о н/о +21.6 +19.5 88 +27 +27 душно 1010.9 1007.2
СВ 1 н/о н/о +21.5 +19.6 89 +27 +27 душно 1011.2 1007.5
В 1 25 км в посл. час ливневой дождь 10/10 300 м
[Cu Sc]
+21.5 +20.0 91 +27 +27 душно 1011.3 1007.6
ЮВ 1 н/о н/о +21.7 +20.2 91 +27 +27 душно 1011.1 1007.4
ЮВ 1 н/о н/о +22.6 +20.5 88 +29 +29 очень
душно
1011.4 1007.7
В 1 30 км {ливн. осадки} 10/10
[Cu Sc]
+22.5 +20.1 86 +29 +29 очень
душно
1011.4 1007.7 +21.3 0.0 0.5
ЮВ 1 н/о н/о +22.8 +20.0 84 +29 +29 очень
душно
1011.6 1007.9
Ю 3 н/о н/о +23.3 +20.1 82 +30 +30 очень
душно
1011.4 1007.7
Ю 3 30 км 9/9 300 м
[Cu Sc]
+24.1 +20.4 80 +30 +32 очень
душно
1011.0 1007.4
ЮВ 2 н/о н/о +24.3 +20.0 77 +30 +30 очень
душно
1010.4 1006.8
ЮВ 3 н/о н/о +24.3 +20.2 78 +30 +30 очень
душно
1010.5 1006.9
ЮВ 2 15 км {ливн. осадки} 10/8
[Cu med, cong Ac As]
+24.2 +20.9 82 +30 +31 очень
душно
1010.1 1006.5 0.0
В 1 н/о н/о +24.6 +21.3 82 +31 +31 очень
душно
1009.8 1006.2
ЮЗ 1 20 км в посл. час ливневой дождь 9/4
[Cu med, cong Ac As]
+25.1 +21.6 81 +32 +33 очень
душно
1009.4 1005.8
З 2 н/о н/о +24.7 +21.0 80 +31 +31 очень
душно
1009.8 1006.2
З 2 н/о н/о +24.0 +20.7 82 +30 +30 очень
душно
1010.4 1006.8
С 2 25 км {ливн. осадки} 6/3
[Cu med, cong Ac trans Ci sp]
+23.6 +21.3 87 +30 +30 очень
душно
1010.4 1006.8 +25.9 0.0
З 2 н/о н/о +23.4 +20.9 86 +31 +31 очень
душно
1010.9 1007.3
СЗ 1 н/о н/о +23.3 +21.4 89 +31 +31 очень
душно
1010.3 1006.7
З 4 н/о н/о +23.1 +20.8 87 +31 +31 очень
душно
1011.2 1007.5
З 4 н/о н/о +22.5 +20.4 88 +29 +29 очень
душно
1011.3 1007.6
СЗ 2 н/о н/о +22.0 +20.1 89 +28 +28 душно 1010.2 1006.5
СЗ 3 20 км {ливн. осадки} 5/3
[Cu med, cong Ci fib]
+21.6 +19.5 88 +27 +27 душно 1010.1 1006.4 0.0
СЗ 2 н/о н/о +20.3 +18.8 91 +25 +25 комфорт 1010.8 1007.1
СЗ 2 н/о н/о +21.0 +19.1 89 +26 +26 душно 1010.3 1006.6
З 3 25 км 1/1
[Cu hum Ci fib]
+20.2 +18.3 89 +24 +24 комфорт 1010.9 1007.2
ЮЗ 2 н/о н/о +20.9 +18.1 84 +26 +26 душно 1011.3 1007.6
СЗ 3 н/о н/о +22.6 +18.4 77 +28 +28 душно 1011.4 1007.7
СЗ 2 20 км 8/1
[Cu hum Ci fib]
+24.4 +17.9 67 +29 +37 душно 1011.1 1007.5 +19.9 0.0 0.0
В 2 н/о н/о +25.4 +17.9 63 +30 +30 душно 1010.4 1006.8
Ю 4 25 км 10/1
[Cu hum Cs]
+25.1 +18.6 67 +30 +41 душно 1010.1 1006.5
ЮВ 3 н/о н/о +26.2 +18.6 63 +31 +31 очень
душно
1009.6 1006.0
З 3 30 км 9/1
[Cu hum Ci sp]
+27.4 +17.9 56 +32 +41 очень
душно
1009.1 1005.5
ЮВ 3 н/о н/о +26.8 +19.2 63 +32 +32 очень
душно
1008.6 1005.0
ЮВ 3 н/о н/о +26.0 +18.4 63 +31 +31 очень
душно
1008.4 1004.8
З 3 30 км 9/1
[Cu hum Ac trans Ci sp]
+26.1 +18.3 62 +31 +31 очень
душно
1008.5 1004.9
СЗ 3 н/о н/о +24.0 +18.7 72 +29 +29 душно 1009.4 1005.8
З 4 н/о н/о +24.8 +18.7 69 +30 +30 душно 1008.9 1005.3
З 2 30 км 8/1
[Cu hum Ac trans Ci sp]
+23.1 +18.9 77 +29 +29 очень
душно
1009.7 1006.1 +28.4
СЗ 2 н/о н/о +22.8 +19.0 79 +29 +29 очень
душно
1009.4 1005.7
С 2 н/о н/о +22.2 +19.2 83 +28 +28 душно 1009.2 1005.5
СЗ 1 н/о н/о +22.1 +19.3 84 +28 +28 душно 1008.5 1004.8
С 3 н/о н/о +21.8 +19.6 87 +27 +27 душно 1008.1 1004.4
С 3 20 км слаб. ливневой дождь 10/5
[Cu med, cong Ac As]
+21.7 +19.6 88 +27 +27 душно 1007.4 1003.7 0.0
СВ 2 н/о н/о +21.0 +20.0 94 +27 +27 душно 1007.1 1003.4
СВ 1 н/о н/о +20.4 +20.1 98 +26 +26 душно 1006.9 1003.2
С 3 4000 м ливневой дождь 10/10
[Cu med, cong]
+20.6 +20.3 98 +26 +26 душно 1007.1 1003.4
С 1 н/о н/о +20.8 +20.5 98 +27 +27 душно 1007.0 1003.3
ЮВ 1 н/о н/о +21.1 +20.4 96 +26 +26 душно 1007.4 1003.7
Ю 1 6000 м слаб. ливневой дождь 10/10
[Cu med, cong]
+21.2 +20.5 96 +26 +26 душно 1007.6 1003.9 +20.3 32 31.5
ЮВ 1 н/о н/о +21.8 +21.3 97 +28 +28 душно 1007.5 1003.8
СВ 2 н/о н/о +22.2 +21.2 94 +29 +29 очень
душно
1007.6 1003.9
СВ 2 6000 м слаб. ливневой дождь 10/10
[Cu med, cong]
+22.2 +21.2 94 +29 +29 очень
душно
1007.3 1003.6
С 3 н/о н/о +22.3 +21.5 95 +29 +29 очень
душно
1006.8 1003.2
С 3 н/о н/о +22.5 +21.5 94 +30 +30 очень
душно
1006.2 1002.6
З 3 8000 м слаб. ливневой дождь 10/10
[Cu med, cong]
+22.6 +21.6 94 +30 +30 очень
душно
1007.0 1003.4 3
В 1 н/о н/о +22.4 +21.6 95 +30 +30 очень
душно
1006.0 1002.4
Ю 2 10 км слаб. ливневой дождь 10/8
[Cu med, cong Ac As]
+21.9 +20.9 94 +28 +28 душно 1005.8 1002.1
Ю 1 н/о н/о +21.7 +21.0 96 +28 +28 душно 1006.8 1003.1
Ю 2 6000 м ливневой дождь 10/10
[Cu med, cong]
+21.4 +20.9 97 +27 +27 душно 1007.1 1003.4 +22.7 15
Ю 2 н/о н/о +21.6 +21.3 98 +28 +28 очень
душно
1007.2 1003.5
С 1 н/о н/о +21.8 +21.5 98 +28 +28 душно 1006.8 1003.1
СВ 2 н/о н/о +21.0 +20.5 97 +27 +27 душно 1006.7 1003.0
С 3 н/о н/о +20.9 +20.2 96 +26 +26 душно 1006.0 1002.3
С 3 н/о н/о +20.9 +20.2 96 +26 +26 душно 1005.1 1001.4
С 3 10 км слаб. ливневой дождь 10/9
[Cb cap Ac As]
+21.0 +20.3 96 +27 +27 душно 1004.7 1001.0 2
С 4 н/о н/о +21.1 +20.4 96 +26 +26 душно 1004.6 1000.9
С 3 н/о н/о +21.3 +20.6 96 +27 +27 душно 1004.5 1000.8
С 3 10 км в посл. час ливневой дождь 10/3
[Cu med, cong Ac As]
+21.4 +20.7 96 +27 +27 душно 1005.0 1001.3
Ю 1 н/о н/о +22.0 +21.3 96 +29 +29 очень
душно
1005.4 1001.8
СВ 3 н/о н/о +21.9 +21.4 97 +28 +28 душно 1005.5 1001.9
СВ 3 10 км слаб. дождь 10/3
[Frnb Ac As]
+22.0 +21.2 95 +28 +31 душно 1005.5 1001.9 +20.7 4 18.5
С 4 н/о н/о +22.3 +20.9 92 +29 +29 очень
душно
1005.8 1002.2
С 3 н/о н/о +22.0 +21.3 96 +29 +29 очень
душно
1006.0 1002.4
СВ 2 10 км слаб. дождь 10/4
[Frnb Ac As]
+22.4 +21.6 95 +30 +33 очень
душно
1005.9 1002.3
С 2 н/о н/о +22.7 +21.5 93 +30 +30 очень
душно
1005.9 1002.3
СВ 3 н/о н/о +22.4 +21.6 95 +30 +30 очень
душно
1005.8 1002.2
СВ 2 10 км слаб. дождь 10/3
[Frnb Ac As]
+22.2 +21.2 94 +29 +32 очень
душно
1005.6 1002.0 6
СВ 2 н/о н/о +22.3 +20.9 92 +29 +29 очень
душно
1005.7 1002.1
СВ 1 н/о н/о +22.5 +20.8 90 +29 +29 очень
душно
1005.7 1002.1
В 1 10 км слаб. дождь 10/3
[Frnb Ac As]
+22.4 +20.9 91 +29 +30 очень
душно
1005.8 1002.2
СВ 2 н/о н/о +22.0 +21.0 94 +28 +28 душно 1007.2 1003.5
В 1 15 км в посл. час дождь 10/0
[Ac As]
+22.0 +21.2 95 +28 +28 душно 1007.0 1003.3 +23.2 6
СВ 1 н/о н/о +22.1 +21.1 94 +29 +29 очень
душно
1007.8 1004.1
С 2 н/о н/о +21.9 +20.7 93 +28 +28 душно 1007.1 1003.4
СВ 2 н/о н/о +21.9 +20.9 94 +28 +28 душно 1006.9 1003.2
С 2 н/о н/о +21.8 +20.8 94 +28 +28 душно 1006.9 1003.2
С 1 15 км 8/3
[Sc Ac trans Ci fib]
+21.5 +20.8 96 +27 +27 душно 1006.5 1002.8
С 3 н/о н/о +21.2 +20.4 95 +26 +26 душно 1006.2 1002.5
С 2 н/о н/о +21.2 +20.4 95 +26 +26 душно 1007.2 1003.5
С 3 15 км 9/9
[Sc]
+21.2 +20.5 96 +26 +26 душно 1007.4 1003.7
С 3 н/о н/о +21.4 +20.4 94 +27 +27 душно 1007.8 1004.1
СВ 3 н/о н/о +21.7 +20.4 92 +27 +27 душно 1008.5 1004.8
СВ 3 8000 м дымка {ливн. осадки} 9/3
[Cu Sc Ci sp]
+22.2 +20.3 89 +28 +34 душно 1008.5 1004.8 +21.1 0.0 6.0
СВ 1 н/о н/о +24.0 +20.9 83 +30 +30 очень
душно
1008.4 1004.8
Ю 4 н/о н/о +24.9 +21.4 81 +32 +32 очень
душно
1008.2 1004.6
Ю 2 20 км 4/1
[Cu med, cong Ci sp]
+26.0 +21.7 77 +33 +53 опасность
солнечного
удара
1008.0 1004.4
ЮВ 2 н/о н/о +27.4 +21.4 70 +35 +35 очень
душно
1007.8 1004.2
ЮВ 2 н/о н/о +27.2 +21.7 72 +35 +35 очень
душно
1007.5 1003.9
ЮВ 2 20 км 9/1
[Cu med, cong Ac trans Ci sp]
+27.7 +21.5 69 +35 +42 очень
душно
1007.4 1003.8
ЮВ 2 н/о н/о +26.3 +21.9 77 +34 +34 очень
душно
1007.5 1003.9
Ю 2 н/о н/о +25.8 +22.9 84 +34 +34 очень
душно
1007.3 1003.7
В 2 30 км 10/1
[Cu hum Ac As]
+25.7 +22.8 84 +34 +35 очень
душно
1007.6 1004.0
ЮВ 3 н/о н/о +24.5 +22.4 88 +32 +32 очень
душно
1008.1 1004.5
В 1 н/о н/о +24.6 +22.3 87 +32 +32 очень
душно
1008.3 1004.7
СВ 2 20 км 10/3
[Cu hum Ac As]
+24.7 +22.2 86 +32 +32 очень
душно
1009.0 1005.4 +28.9
СЗ 1 н/о н/о +24.7 +22.2 86 +32 +32 очень
душно
1009.2 1005.6
ЮВ 2 н/о н/о +24.8 +22.1 85 +32 +32 очень
душно
1008.9 1005.3
ЮВ 3 н/о н/о +23.9 +22.3 91 +31 +31 очень
душно
1008.7 1005.1
С 1 н/о н/о +24.1 +22.5 91 +32 +32 очень
душно
1008.2 1004.6
ЮЗ 1 н/о н/о +23.7 +22.5 93 +31 +31 очень
душно
1007.8 1004.2
С 2 15 км {ливн. осадки} 10/4
[Cu med, cong Ac As]
+23.5 +22.3 93 +31 +31 очень
душно
1007.5 1003.9 0.0
СВ 2 н/о н/о +23.1 +21.9 93 +31 +31 очень
душно
1006.5 1002.9
В 2 5000 м ливневой дождь 10/8
[Cu med, cong Ac As]
+22.5 +22.0 97 +30 +30 очень
душно
1006.5 1002.9
Ю 2 н/о н/о +22.8 +22.5 98 +31 +31 очень
душно
1007.1 1003.5
Ю 2 н/о н/о +22.7 +22.4 98 +31 +31 очень
душно
1007.6 1004.0
СВ 4 10 км слаб. ливневой дождь 10/10
[Cu med, cong]
+23.2 +20.4 84 +30 +30 очень
душно
1007.0 1003.4 +22.3 7 7.0
Ю 2 н/о н/о +22.5 +19.1 81 +28 +28 душно 1008.0 1004.4
СВ 4 н/о н/о +24.3 +17.3 65 +28 +28 душно 1006.9 1003.3
В 2 9000 м слаб. ливневой дождь 10/8
[Cu med, cong Ac As]
+22.7 +18.5 77 +28 +30 душно 1007.7 1004.1
В 2 н/о н/о +21.7 +17.7 78 +26 +26 душно 1007.4 1003.7
Местоположение метеостанции Кагосима (Япония): широта 31.55 долгота 130.55 высота над уровнем моря 32 м.
В архиве по умолчанию представлена погода в Кагосиме за последнюю неделю. Архивные данные за месяц целиком и за предыдущие месяцы, начиная с января 2011 года, Вы можете получить, выбрав интересующий диапазон дат из раскрывающегося списка и нажав кнопку "Найти!".
*Определитесь, кто Вы:
Внимание! Время в таблицах - всемирное. Для получения местного времени необходимо прибавить поправку, которая равна 9 ч.
Смотрите также архив погоды в соседних городах и на ближайших метеорологических станциях:
Партнеры нашего сайта:      
Пояснения к столбцам:
  • Ветер - указаны скорость ветра в м/с - средняя за 10 мин, порывы в срок и между сроками (в фигурных скобках) и направление, откуда дует ветер: С - северный,
  • СВ - северо-восточный, В - восточный, ЮВ - юго-восточный, Ю - южный, ЮЗ - юго-западный, З - западный, СЗ - северо-западный.
  • Видимость - горизонтальная дальность видимости в метрах или километрах. При видимости от 1 до 10 км при отсутствии осадков обычно наблюдается дымка, при ухудшении видимости до 1 км и менее - туман. В сухую погоду видимость может ухудшаться дымом, пылью или мглою.
  • Явления - указаны атмосферные явления, наблюдавшиеся в срок или в последний час перед сроком; фигурными скобками обозначены явления, наблюдавшиеся между сроками (за 1-3 часа до срока); квадратными скобками обозначены град или гололедные отложения с указанием их диаметра в мм.
  • Облачность - указаны через наклонную черту общая и нижняя облачность в баллах и высота нижней границы облаков в метрах; квадратными скобками обозначены формы облаков: Ci - перистые, Cs - перисто-слоистые, Cc - перисто-кучевые, Ac - высококучевые, As - высокослоистые, Sc - слоисто-кучевые, Ns - слоисто-дождевые, Cu - кучевые, Cb - кучево-дождевые. Подробнее классификацию облаков см. в Атласе облаков (PDF).
  • T - Температура воздуха - температура, измеренная на высоте 2 м над землей.
  • Td - Температура точки росы - температура, при понижении до которой содержащийся в воздухе водяной пар достигнет насыщения.
  • f - Относительная влажность воздуха - влажноcть воздуха, измеренная на высоте 2 м над землей.
  • Te - Эффективная температура - температура, которую ощущает одетый по сезону человек в тени. Характеристика душности погоды. При расчете учитывается влияние влажности воздуха и скорости ветра на теплоощущения человека.
  • Tes - Эффективная температура на солнце - температура, которую ощущает человек, с поправкой на солнечный нагрев. Характеристика знойности погоды. Зависит от высоты солнца над горизонтом, облачности и скорости ветра. Ночью, в пасмурную погоду, а также при ветре 12 м/с и более поправка равна нулю.
  • P - Атмосферное давление - приведенное к уровню моря атмосферное давление.
  • Po - Атмосферное давление - измеренное на уровне метеостанции атмосферное давление.
  • Tmin - Минимальная температура - минимум температуры воздуха на высоте 2 м над землей.
  • Tmax - Максимальная температура - максимум температуры воздуха на высоте 2 м над землей.
  • R - Количество осадков - Количество выпавших осадков за период времени, мм. При наведении курсора мыши на число - период времени, за который выпало указанное количество осадков.
  • R24 - Количество осадков - Количество выпавших осадков за 24 часа, мм.
  • S - Снежный покров - Высота снежного покрова, см. При наведении курсора мыши на число - состояние снежного покрова и степень покрытия местности в баллах.